Regional Weather Roundup
Issued by NWS Sioux Falls, SD

Home | Current Version | Previous Version | Graphics & Text | Print | Product List | Glossary On
Versions: 1 2 3 4 5 6 7 8 9 10 11 12 13 14 15 16 17 18 19 20 21 22 23 24 25 26 27 28 29 30 31 32 33 34 35 36 37 38 39 40 41 42 43 44 45 46 47 48 49 50
000
ASUS43 KFSD 171902
RWRFSD

WEATHER ROUNDUP FOR SE SOUTH DAKOTA/SW MINNESOTA/NW IOWA
NATIONAL WEATHER SERVICE SIOUX FALLS SD
100 PM CST SAT FEB 17 2018

NOTE: "FAIR" INDICATES FEW OR NO CLOUDS BELOW 12,000 FEET WITH NO
SIGNIFICANT WEATHER AND OR OBSTRUCTIONS TO VISIBILITY.


SDZ038>040-050-052>070-172000-
SOUTHEAST SOUTH DAKOTA

CITY           SKY/WX    TMP DP  RH WIND       PRES   REMARKS
BROOKINGS      SUNNY     33  20  58 NW18      29.95S WCI  22
CHAMBERLAIN    CLOUDY    32  28  83 W16       30.07R WCI  21
HURON          CLOUDY    31  22  69 NW14      30.04R WCI  21
MADISON        FAIR      32  28  86 NW17G23   29.97S WCI  21
MITCHELL       PTSUNNY   31  25  78 NW16      30.05R WCI  20
SIOUX FALLS    MOSUNNY   32  26  78 W14       29.99R WCI  22
WINNER         CLOUDY    33  26  75 NW18      30.06S WCI  22
YANKTON        CLOUDY    32  26  78 NW20      30.04R WCI  20
$$

MNZ071-072-080-081-089-090-097-098-172000-
SOUTHWEST MINNESOTA

CITY           SKY/WX    TMP DP  RH WIND       PRES   REMARKS
FAIRMONT       MOSUNNY   31  25  78 W14       29.93R WCI  21
JACKSON        MOSUNNY   30  25  80 W16G22    29.93R WCI  19
LUVERNE        SUNNY     32  27  80 NW13      29.97S WCI  22
MARSHALL       SUNNY     36  18  48 NW16G26   29.93S
MONTEVIDEO     SUNNY     37  18  44 N15G21    29.93S
PIPESTONE      MOSUNNY   34  23  64 NW16G22   29.93R WCI  23
REDWOOD FALLS  SUNNY     36  19  50 NW16G23   29.92R
TRACY          PTSUNNY   36  27  69 NW12G20   29.92S
WINDOM         PTSUNNY   34  18  51 W12       29.92S WCI  25
WORTHINGTON    SUNNY     32  26  78 W22       29.94R WCI  19
$$

IAZ001>003-012>014-020>022-031-032-NEZ013-014-SDZ071-172000-
NORTHWEST IOWA

CITY           SKY/WX    TMP DP  RH WIND       PRES   REMARKS
CHEROKEE       CLOUDY    33  28  81 NW13G22   29.99R WCI  24
DENISON        SUNNY     37  30  75 NW14G23   30.00R
ESTHERVILLE    MOSUNNY   29  24  82 W20       29.93R WCI  16
LE MARS        CLOUDY    34  27  75 NW10G17   30.01R WCI  26
ORANGE CITY    LGT SNOW  30  28  93 NW16      29.98S WCI  19
SHELDON        LGT SNOW  28  28 100 W15       29.95F WCI  17
SIOUX CITY     SUNNY     35  26  69 NW14      30.02R WCI  26
SPENCER        CLOUDY    31  26  82 W22       29.95S WCI  18
STORM LAKE     SUNNY     32  28  86 NW20      29.96R WCI  20
$$

ABBREVIATIONS USED IN REMARKS
   TC - TEMPERATURE IN CELSIUS
  WCI - WIND CHILL INDEX
   HX - HEAT INDEX
  VSB - VISIBILITY





USA.gov is the U.S. government's official web portal to all federal, state and local government web resources and services.